Regional Weather Roundup
Issued by NWS

Home | Current Version | Previous Version | Text Only | Print | Product List | Glossary Off
Versions: 1 2 3 4 5 6 7 8 9 10 11 12 13 14 15 16 17 18 19 20 21 22 23 24 25 26 27 28 29 30 31 32 33 34 35 36 37 38 39 40 41 42 43 44 45 46 47 48 49 50

000
ASUS43 KMKX 241721
RWRWI

WISCONSIN REGIONAL WEATHER ROUNDUP
NATIONAL WEATHER SERVICE MILWAUKEE/SULLIVAN WI
1200 PM CDT THU MAY 24 2018

NOTE: "FAIR" INDICATES FEW OR NO CLOUDS BELOW 12,000 FEET WITH NO
SIGNIFICANT WEATHER AND/OR OBSTRUCTIONS TO VISIBILITY.

WIZ001-002-006>008-014>016-023>028-241800-
NORTHWEST WISCONSIN

CITY           SKY/WX    TMP DP  RH WIND       PRES   REMARKS
SUPERIOR ARPT  CLOUDY    52  52  99 NE5       30.04F FOG
ASHLAND        PTSUNNY   73  67  81 S6        30.05F
HAYWARD        FAIR      73  67  81 S9        30.06F
SIREN          FAIR      79  65  63 SE9       30.01F HX  81
CUMBERLAND     FAIR      77  63  61 E8        30.05F
RICE LAKE      FAIR      82  63  53 SE3       30.06F HX  83
CHETEK         FAIR      82  67  59 SW3       30.05F HX  84
LADYSMITH      FAIR      78  64  62 S5        30.10F HX  80
EAU CLAIRE     FAIR      86  66  51 SW10G20   30.04F HX  88
MENOMONIE      FAIR      84  65  52 S9        30.04F HX  86
NEW RICHMOND   FAIR      85  64  49 SW10G17   30.01F HX  86
OSCEOLA        FAIR      84  65  52 S12       30.02F HX  86
$$

WIZ003>005-009-010-017-018-241800-
NORTH CENTRAL WISCONSIN

CITY           SKY/WX    TMP DP  RH WIND       PRES   REMARKS
MANITOWISH WTR RAIN      65  65 100 SE5       30.11F
ARBOR VITAE    CLOUDY    72  63  73 SE7       30.12F
WOODRUFF       CLOUDY    72  63  73 SE7       30.12F
RHINELANDER    FAIR      83  63  50 W8        30.12F HX  84
EAGLE RIVER    FAIR      71  61  70 S3        30.12F
LAND O LAKES   CLOUDY    67  64  92 CALM      30.15S
PHILLIPS       FAIR      75  64  70 S3        30.10F
TOMAHAWK       PTSUNNY   77  62  59 SW5       30.11F
MEDFORD        FAIR      78  63  58 S12       30.10F HX  80
MERRILL        FAIR      82  64  55 SW7G17    30.11S HX  83
$$

WIZ029-030-035-036-043>047-241800-
CENTRAL WISCONSIN

CITY           SKY/WX    TMP DP  RH WIND       PRES   REMARKS
WAUSAU         FAIR      80  62  54 S8        30.09F HX  81
MOSINEE        PTSUNNY   79  64  61 SW6       30.13F HX  81
MARSHFIELD     CLOUDY    80  64  58 S9        30.11S HX  82
STEVENS POINT  FAIR      80  61  53 SW6       30.12F HX  81
WAUPACA        FAIR      85  58  39 S8        30.12F HX  84
WAUTOMA        FAIR      82  60  47 SW13      30.12F HX  82
WISC RAPIDS    FAIR      82  61  48 S12       30.13S HX  83
CAMP DOUGLAS   PTSUNNY   81  66  61 S9        30.09F HX  83
$$

WIZ011>013-019>022-031-037>040-048>050-241800-
NORTHEAST WISCONSIN

CITY           SKY/WX    TMP DP  RH WIND       PRES   REMARKS
ANTIGO         FAIR      80  63  55 SW12      30.13F HX  81
SHAWANO        FAIR      82  58  43 S5        30.11F HX  82
OCONTO         CLOUDY    82  57  43 S8        30.11F HX  82
STURGEON BAY   FAIR      79  57  46 SE12      30.13F HX  80
GREEN BAY      FAIR      80  57  45 S12       30.13F HX  80
MANITOWOC      FAIR      73  54  51 SE9       30.15F
APPLETON       MOSUNNY   79  52  38 S12       30.12F
CLINTONVILLE   FAIR      81  56  41 S8G16     30.11F HX  81
OSHKOSH        FAIR      81  59  47 S10G18    30.13F HX  81
$$

WIZ032>034-041-042-053>061-241800-
SOUTHWEST WISCONSIN

CITY           SKY/WX    TMP DP  RH WIND       PRES   REMARKS
LA CROSSE      FAIR      83  65  54 S12       30.07F HX  85
SPARTA         FAIR      83  64  52 SW9G18    30.10F HX  84
VIROQUA        FAIR      81  65  58 S13       30.12F HX  83
BOSCOBEL       FAIR      85  65  51 MISG      30.11S HX  86
PRAIRIE DU CHI FAIR      82  63  51 S3        30.09F HX  83
PLATTEVILLE    FAIR      80  65  60 S8        30.14F HX  82
$$

WIZ056-057-062-063-064-067-068-241800-
SOUTH CENTRAL WISCONSIN

CITY           SKY/WX    TMP DP  RH WIND       PRES   REMARKS
REEDSBURG      FAIR      81  65  59 S7        30.12S HX  82
BARABOO/DELLS  FAIR      82  58  43 S9        30.12F HX  82
LONE ROCK      FAIR      83  66  56 SW8G18    30.11F HX  85
MINERAL POINT  FAIR      81  61  50 SE6       30.15S HX  81
MADISON        PTSUNNY   80  58  46 S12       30.13F HX  80
MIDDLETON      FAIR      82  59  45 S8        30.14F HX  82
WATERTOWN      FAIR      80  58  46 S9        30.15S HX  81
MONROE         FAIR      81  55  41 S9        30.15S HX  80
JANESVILLE     MOSUNNY   82  55  39 S9        30.15F HX  82
$$

WIZ051-052-058>065-066-070>072-241800-
SOUTHEAST WISCONSIN

CITY           SKY/WX    TMP DP  RH WIND       PRES   REMARKS
MILWAUKEE      FAIR      79  62  56 SE10      30.15F HX  80
WAUKESHA       SUNNY     79  54  41 S6        30.17F
MILWAUKEE/TIMM SUNNY     81  46  30 S6        30.16F HX  80
RACINE         FAIR      75  57  53 SE10      30.18F
BURLINGTON     FAIR      82  56  40 SW10      30.16F HX  82
KENOSHA        FAIR      82  55  39 S10       30.16F HX  81
FOND DU LAC    FAIR      81  57  43 S10       30.13F HX  81
SHEBOYGAN      FAIR      78  59  51 SE9       30.14F
WEST BEND      FAIR      79  54  41 S8        30.15F
JUNEAU         FAIR      78  58  49 S7        30.16S
$$

LSZ147-162-241800-
LAKE SUPERIOR

STATION/POSITION TIME  TEMP    WIND        PRES    WAVE
                       AIR SEA DIR/SP/G            HT/PER
                 (UTC) (F)     (DEG/KT/KT) (MB)    (FT/S)
W MID LAKE BUOY  1650   41 36  350/  2/  4 1018.6F   0
DEVILS ISLAND    1700   45      80/  4/  4 1018.2F
SAXON HARBOR     1630   73     210/  6/  9 1017.3S
$$

LMZ867-665-643>646-241800-
LAKE MICHIGAN

STATION/POSITION TIME  TEMP    WIND        PRES    WAVE
                       AIR SEA DIR/SP/G            HT/PER
                 (UTC) (F)     (DEG/KT/KT) (MB)    (FT/S)
N MID LAKE BUOY  1700   42 38  190/ 10/ 12 1020.8
NORTHPORT PIER   1640   57     140/  3/  5 1020.3S
KEWAUNEE LAKESHO 1654   53     170/ 11/ 12 1020.3F
SHEBOYGAN LAKESH 1700   50     160/ 14/ 14 1021.0F
PORT WASHINGTON  1630   57     150/  5/  6 1022.4F
ATWATER BUOY     1637   53 51  150/ 10/ 10 1021.3F   1
MILWAUKEE LAKESH 1700   55      40/  1/  1   N/A
S MID LAKE BUOY  1650   49 40  150/  8/  8 1022.7F   0
KENOSHA   LAKESH 1700   56                 1021.3
$$

TC  - TEMPERATURE IN CELSIUS
VSB - VISIBILITY IN STATUTE MILES
WCI - WIND CHILL INDEX
HX  - HEAT INDEX





USA.gov is the U.S. government's official web portal to all federal, state and local government web resources and services.